#timestamp,LO_Frequency,Hit 
1499191215.6,286046995.1,N
1499191235.4,286046997.8,N
1499191255.2,286046996.5,N
1499191275.1,286046995.5,N
1499191276.0,286046995.5,N
1499191295.8,286046994.4,N
1499191315.6,286046992.8,N
1499191335.5,286046994.1,N
1499191355.3,286046996.3,N
1499191375.1,286046997.9,N
1499191395.9,286046995.6,N
1499191415.7,286046996.3,N
1499191435.5,286046993.2,N
1499191455.4,286046988.6,N
1499191475.2,286046990.4,N
1499191495.0,286046994.3,N
1499191495.9,286046994.3,N
1499191515.8,286046993.6,N
1499191535.6,286046994.9,N
1499191555.4,286046997.5,N
1499191575.3,286046999.1,N
1499191595.1,286046995.3,N
1499191596.0,286046995.3,N
1499191615.8,286046997.7,N
1499191635.6,286046998.9,N
1499191655.5,286046997.0,N
1499191675.3,286046999.5,N
1499191695.1,286046999.4,N
1499191715.9,286046997.3,N
1499191735.7,286046994.7,N
1499191755.5,286046994.6,N
1499191775.4,286046991.7,N
1499191795.2,286046993.6,N
1499191815.0,286046992.4,N
1499191815.9,286046992.4,N
1499191835.8,286046993.7,N
1499191855.6,286046995.9,N
1499191875.4,286046995.6,N
1499191895.3,286046995.6,N
1499191915.1,286046993.4,N
1499191916.0,286046993.4,N
1499191935.8,286046997.6,N
1499191955.7,286046996.9,N
1499191975.5,286046996.1,N
1499191995.3,286046994.9,N
1499192015.1,286046999.2,N
1499192035.9,286046995.5,N
1499192055.7,286046995.9,N
1499192075.5,286046999.6,N
1499192095.4,286047000.9,N
1499192115.2,286046998.6,N
1499192135.0,286046998.2,N
1499192135.9,286046998.2,N
1499192155.8,286046996.6,N
1499192175.6,286046999.5,N
1499192195.4,286046999.2,N
1499192215.3,286046999.1,N
1499192235.1,286046997.3,N
1499192236.0,286046997.3,N
1499192255.8,286046996.9,N
1499192275.7,286046993.4,N
1499192295.5,286046996.9,N
1499192315.3,286046997.8,N
1499192335.1,286046996.2,N
1499192355.9,286046999.5,N
1499192375.7,286046999.2,N
1499192395.5,286047001.0,N
1499192415.4,286046999.9,N
1499192435.2,286046998.6,N
1499192455.0,286047000.6,N
1499192455.9,286047000.6,N
1499192475.8,286047001.0,N
1499192495.6,286046996.7,N
1499192515.4,286046999.4,N
1499192535.3,286047000.0,N
1499192555.1,286047001.9,N
1499192556.0,286047001.9,N
1499192575.8,286047001.8,N
1499192595.7,286047001.5,N
1499192615.5,286047000.2,N
1499192635.3,286047002.5,N
1499192655.2,286047003.8,N
1499192675.9,286046999.7,N
1499192695.7,286046999.5,N
1499192715.6,286046998.8,N
1499192735.4,286047000.3,N
1499192755.2,286046999.1,N
1499192775.0,286046998.5,N
1499192775.9,286046998.5,N
1499192795.8,286047000.4,N
1499192815.6,286046999.7,N
1499192835.4,286047002.7,N
1499192855.3,286047000.2,N
1499192875.1,286047001.5,N
1499192895.8,286047001.3,N
1499192915.7,286047006.0,N
1499192935.5,286047005.3,N
1499192955.3,286047002.9,N
1499192975.2,286047005.0,N
1499192995.9,286047007.2,N
1499193015.7,286047007.5,N
1499193035.6,286047004.7,N
1499193055.4,286047005.4,N
1499193075.2,286047007.4,N
1499193095.0,286047008.0,N
1499193096.0,286047008.0,N
1499193115.8,286047008.6,N
1499193135.6,286047006.6,N
1499193155.4,286047006.9,N
1499193175.3,286047006.3,N
1499193195.1,286047007.5,N
1499193215.8,286047007.6,N
1499193235.7,286047007.6,N
1499193255.5,286047005.4,N
1499193275.3,286047009.2,N
1499193295.2,286047007.2,N
1499193315.9,286047004.8,N
1499193335.7,286047006.9,N
1499193355.6,286047005.5,N
1499193375.4,286047006.9,N
1499193395.2,286047007.2,N
1499193415.0,286047004.5,N
1499193416.0,286047004.5,N
1499193435.8,286047008.8,N
1499193455.6,286047008.6,N
1499193475.4,286047008.9,N
1499193495.3,286047006.3,N
1499193515.1,286047008.6,N
1499193535.8,286047008.6,N
1499193555.7,286047007.4,N
1499193575.5,286047007.2,N
1499193595.3,286047007.2,N
1499193615.2,286047007.2,N
1499193635.9,286047005.7,N
1499193655.7,286047002.9,N
1499193675.6,286047009.2,N
1499193695.4,286047008.8,N
1499193715.2,286047007.3,N
1499193735.0,286047007.5,N
1499193735.9,286047007.5,N
1499193755.8,286047007.6,N
1499193775.6,286047006.8,N
1499193795.4,286047006.9,N
1499193815.3,286047007.3,N
1499193835.1,286047005.1,N
1499193855.8,286047007.2,N
1499193875.7,286047006.3,N
1499193895.5,286047009.2,N
1499193915.3,286047008.5,N
1499193935.2,286047008.7,N
1499193955.9,286047009.1,N
1499193975.7,286047010.0,N
1499193995.6,286047011.0,N
1499194015.4,286047010.8,N
1499194035.2,286047009.5,N
1499194055.1,286047015.4,N
1499194056.0,286047015.4,N
1499194075.8,286047011.2,N
1499194095.6,286047014.0,N
1499194115.5,286047009.3,N
1499194135.3,286047009.8,N
1499194155.1,286047008.1,N
1499194175.8,286047008.0,N
1499194195.7,286047010.4,N
1499194215.5,286047009.9,N
1499194235.3,286047014.0,N
1499194255.2,286047014.0,N
1499194275.9,286047009.9,N
1499194295.7,286047011.5,N
1499194315.6,286047015.0,N
1499194335.4,286047013.3,N
1499194355.2,286047013.6,N
1499194375.1,286047013.6,N
1499194376.0,286047013.6,N
1499194395.8,286047015.3,N
1499194415.6,286047015.6,N
1499194435.5,286047013.4,N
1499194455.3,286047011.0,N
1499194475.1,286047011.6,N
1499194495.8,286047011.3,N
1499194515.7,286047011.6,N
1499194535.5,286047011.5,N
1499194555.3,286047013.6,N
1499194575.2,286047015.5,N
1499194595.9,286047012.9,N
1499194615.7,286047014.1,N
1499194635.6,286047014.7,N
1499194655.4,286047013.1,N
1499194675.2,286047015.5,N
1499194695.1,286047014.3,N
1499194696.0,286047014.3,N
1499194715.8,286047015.2,N
1499194735.6,286047015.3,N
1499194755.5,286047014.3,N
1499194775.3,286047018.4,N
1499194795.1,286047018.8,N
